Change the Weather History Date:

Tuesday, November 2, 2010

  Actual Average Record
Temperature  
Mean Temperature 54 °F 51 °F  
Max Temperature 73 °F 66 °F 80 °F (2009)
Min Temperature 36 °F 36 °F 21 °F (1989)
Degree Days  
Heating Degree Days 10    
Month to date heating degree days  
Since 1 July heating degree days  
Cooling Degree Days 0    
Month to date cooling degree days  
Year to date cooling degree days  
Growing Degree Days 4 (Base 50)    
Moisture  
Dew Point 26 °F    
Average Humidity 39    
Maximum Humidity 67    
Minimum Humidity 16    
Precipitation  
Precipitation 0.00 in 0.03 in 0.73 in (1959)
Month to date precipitation 0.06  
Year to date precipitation 12.15  
Sea Level Pressure  
Sea Level Pressure 30.26 in    
Wind  
Wind Speed 4 mph (WSW)    
Max Wind Speed 7 mph    
Max Gust Speed -    
Visibility 10 miles    
Events      
T = Trace of Precipitation, MM = Missing Value Source: NWS Daily Summary

Daily Weather History Graph

Daily Weather History Graph

Search for Another Location

Airport or City:

Trip Planner

Search our weather history database for the weather conditions in past years. The results will help you decide how hot, cold, wet, or windy it might be!

Date:

Astronomy

Nov. 02, 2010 Rise Set
Actual Time 6:51 AM MST 5:34 PM MST
Civil Twilight 6:25 AM MST 6:00 PM MST
Nautical Twilight 5:55 AM MST 6:30 PM MST
Astronomical Twilight 5:25 AM MST 7:00 PM MST
Moon 2:51 AM MST (11/2) 3:08 PM MST (11/2)
Length of Visible Light 11h 35m
Length of Day
10h 43m
Waning Crescent, 16% of the Moon is Illuminated
Nov 2
Waning Crescent
Nov 5
New
Nov 13
First Quarter
Nov 21
Full
Nov 28
Last Quarter

Hourly Weather History & Observations

Time (MST) Temp. Windchill Dew Point Humidity Pressure Visibility Wind Dir Wind Speed Gust Speed Precip Events Conditions
12:53 AM 46.0 °F 43.9 °F 21.9 °F 39% 30.28 in 10.0 mi WNW 4.6 mph - N/A   Clear
1:53 AM 39.9 °F 37.8 °F 24.1 °F 53% 30.28 in 10.0 mi SSW 3.5 mph - N/A   Clear
2:53 AM 39.0 °F 36.8 °F 25.0 °F 57% 30.27 in 10.0 mi WSW 3.5 mph - N/A   Clear
3:53 AM 39.0 °F 35.7 °F 25.0 °F 57% 30.29 in 10.0 mi WSW 4.6 mph - N/A   Clear
4:53 AM 37.9 °F 35.5 °F 25.0 °F 60% 30.29 in 10.0 mi South 3.5 mph - N/A   Clear
5:53 AM 36.0 °F 30.3 °F 26.1 °F 67% 30.32 in 10.0 mi SSW 6.9 mph - N/A   Clear
6:53 AM 39.0 °F 34.0 °F 25.0 °F 57% 30.33 in 10.0 mi South 6.9 mph - N/A   Clear
7:53 AM 43.0 °F 39.5 °F 27.0 °F 53% 30.35 in 10.0 mi South 5.8 mph - N/A   Clear
8:53 AM 53.1 °F - 26.1 °F 35% 30.35 in 10.0 mi Calm Calm - N/A   Clear
9:53 AM 57.0 °F - 24.1 °F 28% 30.33 in 10.0 mi Calm Calm - N/A   Clear
10:53 AM 62.1 °F - 26.1 °F 25% 30.33 in 10.0 mi NNW 5.8 mph - N/A   Clear
11:53 AM 64.9 °F - 24.1 °F 21% 30.28 in 10.0 mi Calm Calm - N/A   Clear
12:53 PM 70.0 °F - 24.1 °F 18% 30.23 in 9.0 mi Calm Calm - N/A   Clear
1:53 PM 72.0 °F - 24.1 °F 17% 30.22 in 8.0 mi North 5.8 mph - N/A   Clear
2:53 PM 73.9 °F - 24.1 °F 16% 30.19 in 10.0 mi North 3.5 mph - N/A   Clear
3:53 PM 73.0 °F - 25.0 °F 17% 30.19 in 10.0 mi North 4.6 mph - N/A   Clear
4:53 PM 71.1 °F - 25.0 °F 18% 30.19 in 10.0 mi NNW 4.6 mph - N/A   Clear
5:53 PM 68.0 °F - 25.0 °F 20% 30.22 in 10.0 mi Calm Calm - N/A   Clear
6:53 PM 55.9 °F - 30.0 °F 37% 30.25 in 10.0 mi South 3.5 mph - N/A   Clear
7:53 PM 54.0 °F - 30.0 °F 40% 30.25 in 10.0 mi Calm Calm - N/A   Clear
8:53 PM 51.1 °F - 30.0 °F 44% 30.23 in 10.0 mi SSW 5.8 mph - N/A   Clear
9:53 PM 48.0 °F - 30.0 °F 50% 30.24 in 10.0 mi SW 3.5 mph - N/A   Clear
10:53 PM 48.9 °F - 30.0 °F 48% 30.23 in 10.0 mi Calm Calm - N/A   Clear
11:53 PM 46.0 °F 43.9 °F 30.0 °F 54% 30.22 in 10.0 mi SSW 4.6 mph - N/A   Clear